Time,TemperatureF,DewpointF,PressureIn,WindDirection,WindDirectionDegrees,WindSpeedMPH,WindSpeedGustMPH,Humidity,HourlyPrecipIn,Conditions,Clouds,dailyrainin,SoftwareType,DateUTC
2013-11-18 02:13:00,42.0,23.0,-100.00,WSW,240,1.0,2.0,47,-99.99,,,-99.99,,2013-11-18 10:13:00,
2013-11-18 04:52:00,42.0,28.0,-100.00,West,281,3.0,6.0,57,-99.99,,,-99.99,,2013-11-18 12:52:00,
2013-11-18 05:01:00,42.0,28.0,-100.00,West,281,3.0,6.0,57,-99.99,,,-99.99,,2013-11-18 13:01:00,
2013-11-18 10:12:00,49.0,25.0,-100.00,South,189,4.0,6.0,39,-99.99,,,-99.99,,2013-11-18 18:12:00,
2013-11-18 10:23:00,49.0,25.0,-100.00,South,189,4.0,6.0,39,-99.99,,,-99.99,,2013-11-18 18:23:00,
2013-11-18 10:42:00,51.0,24.0,-100.00,SW,216,14.0,22.0,35,-99.99,,,-99.99,,2013-11-18 18:42:00,
2013-11-18 10:52:00,51.0,26.0,-100.00,SSW,210,11.0,16.0,37,-99.99,,,-99.99,,2013-11-18 18:52:00,
2013-11-18 11:01:00,51.0,26.0,-100.00,SSW,210,11.0,16.0,37,-99.99,,,-99.99,,2013-11-18 19:01:00,
2013-11-18 11:21:00,52.0,29.0,-100.00,South,176,11.0,18.0,41,-99.99,,,-99.99,,2013-11-18 19:21:00,
2013-11-18 11:32:00,52.0,29.0,-100.00,South,176,11.0,18.0,41,-99.99,,,-99.99,,2013-11-18 19:32:00,
2013-11-18 12:21:00,51.0,29.0,-100.00,SSW,195,9.0,14.0,43,-99.99,,,-99.99,,2013-11-18 20:21:00,
2013-11-18 12:42:00,51.0,30.0,-100.00,SW,224,5.0,9.0,45,-99.99,,,-99.99,,2013-11-18 20:42:00,
2013-11-18 12:52:00,51.0,29.0,-100.00,SW,229,9.0,13.0,42,-99.99,,,-99.99,,2013-11-18 20:52:00,
2013-11-18 13:02:00,51.0,29.0,-100.00,SW,229,9.0,13.0,42,-99.99,,,-99.99,,2013-11-18 21:02:00,
2013-11-18 13:21:00,52.0,28.0,-100.00,SSW,192,7.0,12.0,40,-99.99,,,-99.99,,2013-11-18 21:21:00,
2013-11-18 13:31:00,55.0,29.0,-100.00,SW,234,9.0,15.0,36,-99.99,,,-99.99,,2013-11-18 21:31:00,
2013-11-18 13:43:00,56.0,27.0,-100.00,WSW,256,13.0,18.0,33,-99.99,,,-99.99,,2013-11-18 21:43:00,
2013-11-18 14:13:00,55.0,29.0,-100.00,SW,234,9.0,15.0,36,-99.99,,,-99.99,,2013-11-18 22:13:00,
2013-11-18 14:22:00,55.0,29.0,-100.00,SW,234,9.0,15.0,36,-99.99,,,-99.99,,2013-11-18 22:22:00,
2013-11-18 15:12:00,50.0,28.0,-100.00,West,270,15.0,24.0,42,-99.99,,,-99.99,,2013-11-18 23:12:00,
2013-11-18 15:21:00,50.0,28.0,-100.00,WSW,257,9.0,16.0,43,-99.99,,,-99.99,,2013-11-18 23:21:00,
2013-11-18 15:33:00,50.0,28.0,-100.00,WSW,257,9.0,16.0,43,-99.99,,,-99.99,,2013-11-18 23:33:00,
2013-11-18 15:42:00,50.0,28.0,-100.00,WSW,257,9.0,16.0,43,-99.99,,,-99.99,,2013-11-18 23:42:00,
2013-11-18 16:21:00,50.0,29.0,-100.00,WSW,240,13.0,23.0,45,-99.99,,,-99.99,,2013-11-19 00:21:00,
2013-11-18 16:42:00,49.0,29.0,-100.00,WSW,243,14.0,21.0,46,-99.99,,,-99.99,,2013-11-19 00:42:00,
2013-11-18 16:52:00,49.0,29.0,-100.00,SSW,213,8.0,13.0,46,-99.99,,,-99.99,,2013-11-19 00:52:00,
2013-11-18 17:02:00,49.0,29.0,-100.00,SSW,213,8.0,13.0,46,-99.99,,,-99.99,,2013-11-19 01:02:00,
2013-11-18 17:21:00,48.0,28.0,-100.00,WSW,243,9.0,17.0,46,-99.99,,,-99.99,,2013-11-19 01:21:00,
2013-11-18 17:42:00,48.0,29.0,-100.00,SW,215,6.0,13.0,48,-99.99,,,-99.99,,2013-11-19 01:42:00,
2013-11-18 18:22:00,46.0,29.0,-100.00,SSW,212,6.0,9.0,52,-99.99,,,-99.99,,2013-11-19 02:22:00,
2013-11-18 18:32:00,46.0,29.0,-100.00,SSW,212,6.0,9.0,52,-99.99,,,-99.99,,2013-11-19 02:32:00,
2013-11-18 18:42:00,46.0,29.0,-100.00,SSW,212,6.0,9.0,52,-99.99,,,-99.99,,2013-11-19 02:42:00,
2013-11-18 18:52:00,47.0,29.0,-100.00,WSW,253,15.0,24.0,50,-99.99,,,-99.99,,2013-11-19 02:52:00,
2013-11-18 19:11:00,47.0,29.0,-100.00,SW,215,5.0,9.0,50,-99.99,,,-99.99,,2013-11-19 03:11:00,
2013-11-18 19:21:00,46.0,29.0,-100.00,SW,226,8.0,13.0,51,-99.99,,,-99.99,,2013-11-19 03:21:00,
2013-11-18 19:33:00,46.0,29.0,-100.00,SW,226,8.0,13.0,51,-99.99,,,-99.99,,2013-11-19 03:33:00,
2013-11-18 19:43:00,46.0,29.0,-100.00,SW,226,8.0,13.0,51,-99.99,,,-99.99,,2013-11-19 03:43:00,
2013-11-18 20:13:00,46.0,28.0,-100.00,SSW,212,7.0,12.0,50,-99.99,,,-99.99,,2013-11-19 04:13:00,
2013-11-18 20:23:00,46.0,28.0,-100.00,SSW,212,7.0,12.0,50,-99.99,,,-99.99,,2013-11-19 04:23:00,
2013-11-18 20:42:00,45.0,29.0,-100.00,SSW,196,6.0,12.0,53,-99.99,,,-99.99,,2013-11-19 04:42:00,
2013-11-18 21:12:00,45.0,31.0,-100.00,WSW,240,11.0,19.0,57,-99.99,,,-99.99,,2013-11-19 05:12:00,
2013-11-18 21:22:00,45.0,31.0,-100.00,WSW,240,10.0,19.0,57,-99.99,,,-99.99,,2013-11-19 05:22:00,
2013-11-18 21:32:00,45.0,31.0,-100.00,WSW,240,10.0,19.0,57,-99.99,,,-99.99,,2013-11-19 05:32:00,
2013-11-18 21:43:00,45.0,31.0,-100.00,WSW,240,10.0,19.0,57,-99.99,,,-99.99,,2013-11-19 05:43:00,
2013-11-18 22:20:00,44.0,30.0,-100.00,WSW,250,13.0,20.0,57,-99.99,,,-99.99,,2013-11-19 06:20:00,
2013-11-18 22:21:00,44.0,29.0,-100.00,SW,230,4.0,6.0,56,-99.99,,,-99.99,,2013-11-19 06:21:00,
2013-11-18 22:31:00,44.0,29.0,-100.00,SW,230,4.0,6.0,56,-99.99,,,-99.99,,2013-11-19 06:31:00,
2013-11-18 22:42:00,44.0,29.0,-100.00,SW,230,4.0,6.0,56,-99.99,,,-99.99,,2013-11-19 06:42:00,
2013-11-18 22:52:00,44.0,30.0,-100.00,WSW,250,13.0,20.0,57,-99.99,,,-99.99,,2013-11-19 06:52:00,
2013-11-18 23:01:00,44.0,30.0,-100.00,WSW,250,13.0,20.0,57,-99.99,,,-99.99,,2013-11-19 07:01:00,
2013-11-18 23:12:00,44.0,30.0,-100.00,WSW,250,13.0,20.0,57,-99.99,,,-99.99,,2013-11-19 07:12:00,